Tiempo atmosférico en la estación meteorológica de Marbella, Puerto, Málaga (6 m.)



Fecha
DESCASC
Temp. máxima en grados centígrados (hora)
DESCASC
Temp. mínima en grados centígrados (hora)
DESCASC
Temp. media en grados centígrados
DESCASC
Racha de viento máxima en m/sg (hora)
DESCASC
Velocidad máxima media en intervalos de 10 minutos(hora)
DESCASC
Precipitaciones diarias en mm
DESCASC
Precipitaciones de 00:00 a 06:00 en mm
DESCASC
Precipitaciones de 06:00 a 12:00 en mm
DESCASC
Precipitaciones de 12:00 a 18:00 en mm
DESCASC
Precipitaciones de 18:00 a 24:00 en mm
DESCASC
13-01-2021 16.8 (15:20) 6.3 (08:20) 11.5 5.83 (08:00) 4.17 (06:10) 0 0 0 0 0
12-01-2021 14.9 (11:00) 6.5 (07:50) 10.7 5.28 (06:20) 3.61 (06:40) 0 0 0 0 0
11-01-2021 12.7 (16:50) 6.6 (05:10) 9.6 7.5 (04:30) 4.72 (04:10) 3 2.8 0.2 0 0
10-01-2021 9.8 (13:00) 5.6 (06:10) 7.7 6.11 (15:20) 3.89 (15:20) 5 0 0 1.6 3.4
09-01-2021 13.9 (12:20) 7.5 (00:00) 10.7 16.11 (01:10) 12.5 (00:20) 0.8 0 0 0 0.8
08-01-2021 14.2 (23:00) 11.4 (00:00) 12.8 17.78 (19:50) 14.17 (19:40) 87.2 10 36.4 23.8 17
07-01-2021 12.5 (17:30) 10.3 (00:00) 11.4 14.17 (01:00) 10 (00:50) 19.8 1.8 3 1 14
06-01-2021 12.3 (12:40) 9.6 (00:00) 11 14.44 (21:40) 11.11 (23:20) 23.2 1.6 0 1.8 19.8
05-01-2021 14.6 (13:40) 7.8 (00:00) 11.2 6.67 (20:10) 5 (20:10) 2.4 0 0 0 2.4
04-01-2021 16.6 (16:40) 5.7 (00:00) 11.2 9.44 (14:40) 5.56 (14:30) 0 0 0 0 0
03-01-2021 15 (17:30) 5.3 (00:00) 10.2 6.11 (08:00) 3.89 (08:00) 0 0 0 0 0
02-01-2021 16.2 (16:00) 6.2 (00:00) 11.2 9.44 (16:00) 3.89 (15:40) 0 0 0 0 0
01-01-2021 17.1 (14:50) 10.2 (00:00) 13.7 12.22 (12:00) 8.33 (00:50) 0 0 0 0 0
31-12-2020 16.5 (16:50) 7.7 (00:00) 12.1 10.56 (23:30) 8.89 (23:59) 0 0 0 0 0
30-12-2020 16.3 (11:50) 7 (00:00) 11.6 5.83 (21:30) 3.89 (20:30) 0 0 0 0 0
29-12-2020 16.9 (14:10) 9.6 (00:00) 13.3 11.11 (14:00) 6.11 (14:00) 0 0 0 0 0
28-12-2020 18.3 (15:40) 10.1 (00:00) 14.2 13.61 (13:40) 9.17 (14:00) 0 0 0 0 0
27-12-2020 17.8 (17:10) 8.5 (00:00) 13.1 5.56 (00:20) 3.89 (15:20) 0 0 0 0 0
26-12-2020 15.8 (00:10) 11.4 (00:00) 13.6 11.39 (01:50) 8.89 (01:50) 0 0 0 0 0
25-12-2020 18.4 (11:30) 12.4 (00:00) 15.4 9.17 (23:40) 6.67 (15:00) 0 0 0 0 0
24-12-2020 19.5 (15:20) 11.9 (00:00) 15.7 5.56 (03:30) 3.61 (03:30) 0 0 0 0 0
23-12-2020 19.3 (16:50) 10.6 (00:00) 14.9 5 (01:50) 3.61 (04:00) 0 0 0 0 0
22-12-2020 19.5 (11:20) 11.2 (00:00) 15.3 7.78 (15:20) 6.39 (13:40) 0 0 0 0 0
21-12-2020 18.4 (10:50) 11.6 (00:00) 15 8.61 (14:20) 6.67 (11:40) 0 0 0 0 0
20-12-2020 19.1 (13:40) 12.2 (00:00) 15.7 6.39 (04:20) 5.28 (04:20) 0.4 0.2 0.2 0 0
19-12-2020 17.3 (10:50) 11.2 (00:00) 14.2 7.22 (13:50) 5.28 (13:40) 0.2 0 0 0 0.2
18-12-2020 18.6 (16:20) 10.9 (00:00) 14.8 4.72 (09:00) 3.61 (08:30) 0 0 0 0 0

Gráficas

Temp. máximas Temp. mínimas Temp. medias Precipitaciones Rachas de viento máximas Velocidades máximas media en intervalos de 10 minutos

Datos horarios

Fecha y hora oficial Temperatura (ºC) Velocidad del viento (km/h) Dirección del viento Racha (km/h) Dirección de racha Precipitación (mm) Presión (hPa) Tendencia (hPa) Humedad (%)
2021-01-16 23:00:00 11.6 8 Norte 15 Norte 0 -- -- 76
2021-01-16 22:00:00 12.6 5 Nordeste 17 Nordeste 0 -- -- 74
2021-01-16 21:00:00 12.9 9 Norte 30 Este 0 -- -- 75
2021-01-16 20:00:00 14.1 25 Nordeste 36 Este 0 -- -- 77
2021-01-16 19:00:00 14.3 25 Este 32 Este 0 -- -- 79
2021-01-16 18:00:00 15.1 25 Este 33 Este 0 -- -- 76
2021-01-16 17:00:00 14.8 21 Sudeste 26 Sudeste 0 -- -- 71
2021-01-16 16:00:00 16.3 13 Nordeste 17 Nordeste 0 -- -- 68
2021-01-16 15:00:00 16.3 12 Este 14 Este 0 -- -- 61
2021-01-16 14:00:00 15.3 4 Sudeste 18 Sur 0 -- -- 64
2021-01-16 13:00:00 15.3 5 Sur 6 Sur 0 -- -- 56
2021-01-16 12:00:00 14.6 5 Sur 8 Sur 0 -- -- 62
2021-01-16 11:00:00 15.5 3 Este 5 Noroeste 0 -- -- 52
2021-01-16 10:00:00 14.8 0 Calma 8 Noroeste 0 -- -- 50
2021-01-16 09:00:00 9.2 5 Norte 15 Noroeste 0 -- -- 52
2021-01-16 08:00:00 8.2 9 Noroeste 14 Noroeste 0 -- -- 56
2021-01-16 07:00:00 8.2 5 Noroeste 11 Norte 0 -- -- 59
2021-01-16 06:00:00 8.7 6 Noroeste 14 Noroeste 0 -- -- 55
2021-01-16 05:00:00 10.3 11 Noroeste 18 Noroeste 0 -- -- 50
2021-01-16 04:00:00 10.1 3 Noroeste 14 Norte 0 -- -- 58
2021-01-16 03:00:00 10.7 6 Norte 14 Noroeste 0 -- -- 56
2021-01-16 02:00:00 11.5 4 Noroeste 10 Oeste 0 -- -- 52
2021-01-16 01:00:00 11 0 Calma 14 Norte 0 -- -- 58
2021-01-16 00:00:00 12.7 7 Noroeste 15 Noroeste 0 -- -- 50
2021-01-15 23:00:00 12.5 2 Noroeste 14 Noroeste 0 -- -- 54
2021-01-15 22:00:00 12.9 9 Norte 13 Norte 0 -- -- 58
2021-01-15 21:00:00 13.4 4 Noroeste 9 Noroeste 0 -- -- 58
2021-01-15 20:00:00 13.4 5 Este 10 Sur 0 -- -- 66
2021-01-15 19:00:00 14.2 4 Norte 20 Norte 0 -- -- 67
2021-01-15 18:00:00 16.2 5 Nordeste 10 Este 0 -- -- 71
2021-01-15 17:00:00 18.1 2 Sudoeste 7 Nordeste 0 -- -- 61
2021-01-15 16:00:00 17.6 4 Nordeste 8 Sudeste 0 -- -- 57
2021-01-15 15:00:00 15.7 4 Sudeste 6 Sudeste 0 -- -- 48
2021-01-15 14:00:00 15 4 Sudeste 6 Este 0 -- -- 54
2021-01-15 13:00:00 14.3 5 Sudoeste 8 Sur 0 -- -- 58
2021-01-15 12:00:00 14.3 3 Sur 4 Sur 0 -- -- 54
2021-01-15 11:00:00 13.6 2 Sudoeste 5 Noroeste 0 -- -- 49
2021-01-15 10:00:00 11.4 4 Norte 11 Noroeste 0 -- -- 49
2021-01-15 09:00:00 8.1 8 Noroeste 13 Noroeste 0 -- -- 58
2021-01-15 08:00:00 7.5 9 Noroeste 13 Noroeste 0 -- -- 61
2021-01-15 07:00:00 7.2 8 Norte 12 Norte 0 -- -- 63
2021-01-15 06:00:00 7.1 4 Noroeste 9 Nordeste 0 -- -- 64
2021-01-15 05:00:00 7.5 3 Noroeste 12 Noroeste 0 -- -- 66
2021-01-15 04:00:00 8.1 7 Noroeste 12 Noroeste 0 -- -- 68
2021-01-15 03:00:00 7.5 8 Noroeste 12 Noroeste 0 -- -- 64
2021-01-15 02:00:00 7.9 4 Sudoeste 13 Noroeste 0 -- -- 66
2021-01-15 01:00:00 7.9 9 Norte 13 Norte 0 -- -- 63
2021-01-15 00:00:00 8.5 2 Noroeste 12 Noroeste 0 -- -- 61
2021-01-14 23:00:00 8.7 8 Noroeste 14 Noroeste 0 -- -- 61
2021-01-14 22:00:00 9.5 2 Noroeste 13 Norte 0 -- -- 65
2021-01-14 21:00:00 10.2 7 Noroeste 10 Noroeste 0 -- -- 58
2021-01-14 20:00:00 11.4 2 Oeste 16 Oeste 0 -- -- 67
2021-01-14 19:00:00 13.2 10 Oeste 36 Sudoeste 0 -- -- 58
2021-01-14 18:00:00 15.3 19 Oeste 38 Sudoeste 0 -- -- 58
2021-01-14 17:00:00 15.4 29 Sudoeste 40 Sudoeste 0 -- -- 58
2021-01-14 16:00:00 18.1 10 Sudoeste 20 Sudoeste 0 -- -- 47
2021-01-14 15:00:00 18 4 Nordeste 11 Nordeste 0 -- -- 47
2021-01-14 14:00:00 16.1 10 Nordeste 13 Nordeste 0 -- -- 50
2021-01-14 13:00:00 15 5 Este 8 Este 0 -- -- 53
2021-01-14 12:00:00 15.2 5 Nordeste 6 Nordeste 0 -- -- 47
2021-01-14 11:00:00 15.5 0 Calma 12 Noroeste 0 -- -- 42
2021-01-14 10:00:00 10.6 9 Noroeste 17 Noroeste 0 -- -- 47
2021-01-14 09:00:00 7.3 10 Norte 15 Norte 0 -- -- 54
2021-01-14 08:00:00 6.4 9 Noroeste 14 Norte 0 -- -- 57
2021-01-14 07:00:00 6.5 8 Noroeste 14 Norte 0 -- -- 56
2021-01-14 06:00:00 6.7 10 Norte 17 Norte 0 -- -- 56
2021-01-14 05:00:00 7.5 14 Norte 19 Norte 0 -- -- 54
2021-01-14 04:00:00 7.6 7 Norte 15 Norte 0 -- -- 56
2021-01-14 03:00:00 7.4 5 Noroeste 15 Noroeste 0 -- -- 56
2021-01-14 02:00:00 8.5 11 Noroeste 15 Norte 0 -- -- 50
2021-01-14 01:00:00 7.9 9 Noroeste 17 Noroeste 0 -- -- 59
2021-01-14 00:00:00 8.2 5 Noroeste 13 Noroeste 0 -- -- 62
2021-01-13 23:00:00 8.5 6 Noroeste 18 Norte 0 -- -- 68
2021-01-13 22:00:00 9.2 12 Norte 17 Noroeste 0 -- -- 70
2021-01-13 21:00:00 9.8 10 Norte 17 Norte 0 -- -- 71
2021-01-13 20:00:00 10.5 12 Norte 17 Norte 0 -- -- 72
2021-01-13 19:00:00 11.8 7 Norte 11 Norte 0 -- -- 71
2021-01-13 18:00:00 15.8 0 Calma 7 Nordeste 0 -- -- 59
2021-01-13 17:00:00 15.9 6 Nordeste 10 Nordeste 0 -- -- 56
2021-01-13 16:00:00 15.6 4 Este 5 Este 0 -- -- 50
2021-01-13 15:00:00 16.7 0 Calma 8 Sudoeste 0 -- -- 40
2021-01-13 14:00:00 14.6 5 Sudoeste 6 Sudoeste 0 -- -- 52
2021-01-13 13:00:00 13.6 6 Sudeste 10 Sudeste 0 -- -- 55
2021-01-13 12:00:00 13.9 4 Sudeste 5 Sudeste 0 -- -- 54
2021-01-13 11:00:00 14.6 2 Norte 13 Norte 0 -- -- 45
2021-01-13 10:00:00 10.3 10 Norte 20 Noroeste 0 -- -- 55
2021-01-13 09:00:00 7 13 Norte 19 Norte 0 -- -- 63
2021-01-13 08:00:00 6.5 13 Norte 21 Norte 0 -- -- 65
2021-01-13 07:00:00 6.6 13 Norte 20 Norte 0 -- -- 65
2021-01-13 06:00:00 6.5 14 Norte 20 Norte 0 -- -- 66
2021-01-13 05:00:00 6.9 14 Norte 19 Norte 0 -- -- 65
2021-01-13 04:00:00 7 13 Norte 18 Norte 0 -- -- 66
2021-01-13 03:00:00 7.3 12 Norte 18 Norte 0 -- -- 66
2021-01-13 02:00:00 7.7 12 Norte 18 Norte 0 -- -- 66
2021-01-13 01:00:00 8 10 Norte 17 Norte 0 -- -- 67
2021-01-13 00:00:00 8.1 11 Norte 16 Noroeste 0 -- -- 71
2021-01-12 23:00:00 8.4 9 Norte 16 Norte 0 -- -- 73
2021-01-12 22:00:00 8.9 11 Norte 17 Norte 0 -- -- 73
2021-01-12 21:00:00 9 11 Noroeste 16 Norte 0 -- -- 76
2021-01-12 20:00:00 9.5 12 Noroeste 16 Noroeste 0 -- -- 76
2021-01-12 19:00:00 10.7 4 Norte 7 Oeste 0 -- -- 70
2021-01-12 18:00:00 13.6 4 Sudoeste 8 Sur 0 -- -- 57
2021-01-12 17:00:00 14.1 5 Sudoeste 9 Sudoeste 0 -- -- 61
2021-01-12 16:00:00 13.8 7 Sudoeste 12 Sudoeste 0 -- -- 62
2021-01-12 15:00:00 13.4 8 Sudoeste 14 Sudoeste 0 -- -- 59
2021-01-12 14:00:00 13.2 9 Sudoeste 12 Sudoeste 0 -- -- 60
2021-01-12 13:00:00 13 7 Sudoeste 10 Sur 0 -- -- 56
2021-01-12 12:00:00 13.9 4 Sudoeste 8 Sudoeste 0 -- -- 55
2021-01-12 11:00:00 14.9 0 Calma 14 Noroeste 0 -- -- 50
2021-01-12 10:00:00 10.4 11 Noroeste 16 Norte 0 -- -- 58
2021-01-12 09:00:00 7.8 5 Norte 15 Noroeste 0 -- -- 71
2021-01-12 08:00:00 6.6 11 Norte 18 Norte 0 -- -- 75
2021-01-12 07:00:00 6.9 11 Norte 19 Norte 0 -- -- 75
2021-01-12 06:00:00 7.2 9 Norte 17 Noroeste 0 -- -- 74
2021-01-12 05:00:00 7 11 Norte 18 Norte 0 -- -- 76
2021-01-12 04:00:00 7.1 12 Norte 17 Noroeste 0 -- -- 77
2021-01-12 03:00:00 7.3 8 Norte 16 Norte 0 -- -- 77
2021-01-12 02:00:00 7.6 7 Norte 16 Noroeste 0 -- -- 76
2021-01-12 01:00:00 7.8 10 Noroeste 15 Noroeste 0 -- -- 76
2021-01-12 00:00:00 8 8 Noroeste 16 Norte 0 -- -- 78
2021-01-11 23:00:00 8.2 8 Norte 17 Noroeste 0 -- -- 79
2021-01-11 22:00:00 8.1 13 Norte 18 Noroeste 0 -- -- 80
2021-01-11 21:00:00 8.3 13 Norte 18 Noroeste 0 -- -- 81
2021-01-11 20:00:00 9 10 Norte 16 Norte 0 -- -- 79
2021-01-11 19:00:00 10.2 8 Noroeste 13 Norte 0 -- -- 74
2021-01-11 18:00:00 12 5 Sur 14 Sur 0 -- -- 62
2021-01-11 17:00:00 12.3 11 Sur 16 Sur 0 -- -- 62
2021-01-11 16:00:00 12.6 10 Sudoeste 18 Sudoeste 0 -- -- 62
2021-01-11 15:00:00 12.3 15 Sudoeste 20 Sudoeste 0 -- -- 64
2021-01-11 14:00:00 12.1 11 Sudoeste 14 Sudoeste 0 -- -- 64
2021-01-11 13:00:00 11.3 5 Sudoeste 8 Sudoeste 0 -- -- 66
2021-01-11 12:00:00 10.9 0 Calma 8 Noroeste 0 -- -- 75
2021-01-11 11:00:00 9.3 3 Norte 8 Norte 0 -- -- 83
2021-01-11 10:00:00 7.7 7 Noroeste 10 Noroeste 0 -- -- 88
2021-01-11 09:00:00 6.9 5 Noroeste 10 Norte 0 -- -- 90
2021-01-11 08:00:00 6.9 4 Noroeste 9 Noroeste 0 -- -- 89
2021-01-11 07:00:00 6.9 6 Norte 12 Norte 0.2 -- -- 88
2021-01-11 06:00:00 6.8 5 Noroeste 15 Noroeste 0.8 -- -- 89
2021-01-11 05:00:00 6.7 8 Norte 27 Norte 1.8 -- -- 88
2021-01-11 04:00:00 7 14 Norte 22 Norte 0 -- -- 86
2021-01-11 03:00:00 7.8 10 Norte 17 Norte 0 -- -- 81
2021-01-11 02:00:00 7.6 5 Norte 14 Norte 0.2 -- -- 85
2021-01-11 01:00:00 7.4 9 Norte 15 Norte 0 -- -- 83
2021-01-11 00:00:00 6.7 8 Noroeste 18 Norte 0 -- -- 85
2021-01-10 23:00:00 6.3 10 Norte 21 Norte 0 -- -- 87
2021-01-10 22:00:00 6.4 8 Noroeste 15 Noroeste 0.2 -- -- 90
2021-01-10 21:00:00 6.5 7 Noroeste 19 Noroeste 1.6 -- -- 89
2021-01-10 20:00:00 6.4 9 Noroeste 17 Noroeste 0.4 -- -- 87
2021-01-10 19:00:00 6.9 8 Noroeste 11 Norte 1.2 -- -- 88
2021-01-10 18:00:00 7.4 6 Norte 12 Norte 1 -- -- 85
2021-01-10 17:00:00 8.5 4 Norte 8 Norte 0.4 -- -- 77
2021-01-10 16:00:00 8.5 6 Sur 22 Sudoeste 0.2 -- -- 69
2021-01-10 15:00:00 9.6 10 Sur 15 Sur 0 -- -- 63
2021-01-10 14:00:00 9.6 5 Sur 13 Sudoeste 0 -- -- 66
2021-01-10 13:00:00 9.8 10 Sudoeste 20 Sudoeste 0 -- -- 70
2021-01-10 12:00:00 9.5 9 Sudoeste 15 Sudeste 0 -- -- 70
2021-01-10 11:00:00 7.6 5 Norte 13 Noroeste 0 -- -- 84
2021-01-10 10:00:00 6.7 7 Noroeste 12 Noroeste 0 -- -- 84
2021-01-10 09:00:00 6 8 Noroeste 12 Noroeste 0 -- -- 84
2021-01-10 08:00:00 7.8 7 Oeste 17 Sudoeste 0 -- -- 80
2021-01-10 07:00:00 5.9 7 Noroeste 11 Noroeste 0 -- -- 79
2021-01-10 06:00:00 5.7 4 Norte 12 Norte 0 -- -- 80
2021-01-10 05:00:00 5.9 4 Noroeste 14 Norte 0 -- -- 85
2021-01-10 04:00:00 6.1 3 Noroeste 12 Norte 0 -- -- 88
2021-01-10 03:00:00 6.2 6 Norte 12 Noroeste 0 -- -- 88
2021-01-10 02:00:00 6.6 8 Norte 14 Noroeste 0 -- -- 88
2021-01-10 01:00:00 7.1 8 Noroeste 13 Norte 0 -- -- 87
2021-01-10 00:00:00 7.5 7 Norte 12 Noroeste 0 -- -- 87
2021-01-09 23:00:00 8 6 Norte 10 Noroeste 0 -- -- 88
2021-01-09 22:00:00 8.1 6 Noroeste 10 Norte 0 -- -- 89
2021-01-09 21:00:00 8.5 3 Noroeste 8 Oeste 0.2 -- -- 84
2021-01-09 20:00:00 9 0 Calma 28 Sudoeste 0.6 -- -- 83
2021-01-09 19:00:00 10.6 16 Oeste 35 Sudoeste 0 -- -- 76
2021-01-09 18:00:00 11.2 31 Sudoeste 40 Sudoeste 0 -- -- 69
2021-01-09 17:00:00 11.9 28 Sudoeste 40 Sudoeste 0 -- -- 64
2021-01-09 16:00:00 12.5 28 Oeste 44 Sudoeste 0 -- -- 54
2021-01-09 15:00:00 13.3 31 Oeste 50 Sudoeste 0 -- -- 50
2021-01-09 14:00:00 13.2 33 Oeste 53 Sudoeste 0 -- -- 52
2021-01-09 13:00:00 12.6 38 Sudoeste 51 Sudoeste 0 -- -- 58
2021-01-09 12:00:00 13 13 Oeste 32 Oeste 0 -- -- 49
2021-01-09 11:00:00 11.9 21 Oeste 40 Oeste 0 -- -- 53
2021-01-09 10:00:00 10.9 12 Noroeste 31 Oeste 0 -- -- 55
2021-01-09 09:00:00 9.9 17 Sudoeste 27 Sudoeste 0 -- -- 70
2021-01-09 08:00:00 10 17 Oeste 30 Oeste 0 -- -- 73
2021-01-09 07:00:00 10.9 9 Oeste 24 Oeste 0 -- -- 75
2021-01-09 06:00:00 11.1 15 Oeste 40 Oeste 0 -- -- 74
2021-01-09 05:00:00 11.7 22 Oeste 40 Oeste 0 -- -- 73
2021-01-09 04:00:00 11.8 22 Oeste 48 Oeste 0 -- -- 79
2021-01-09 03:00:00 12.2 20 Oeste 51 Sudoeste 0 -- -- 82
2021-01-09 02:00:00 12.5 29 Sudoeste 58 Sudoeste 0 -- -- 86
2021-01-09 01:00:00 12.2 23 Oeste 56 Sudoeste 0 -- -- 88
2021-01-09 00:00:00 12.1 36 Sudoeste 58 Sudoeste 0 -- -- 92
2021-01-08 23:00:00 14.2 16 Sudoeste 41 Sudoeste 0.2 -- -- 90
2021-01-08 22:00:00 13.8 20 Norte 60 Este 1.4 -- -- 89
2021-01-08 21:00:00 13.6 42 Este 56 Este 10 -- -- 96
2021-01-08 20:00:00 13.5 46 Este 64 Este 3.2 -- -- 95
2021-01-08 19:00:00 13.5 46 Este 62 Este 2.2 -- -- 95
2021-01-08 18:00:00 13.7 34 Este 50 Este 1.2 -- -- 94
2021-01-08 17:00:00 13.1 27 Este 57 Este 0.4 -- -- 96
2021-01-08 16:00:00 13 41 Este 58 Este 1.8 -- -- 96
2021-01-08 15:00:00 12.9 42 Este 61 Este 5.4 -- -- 96
2021-01-08 14:00:00 13.1 40 Este 62 Este 4.2 -- -- 96
2021-01-08 13:00:00 12.2 48 Nordeste 62 Nordeste 10.8 -- -- 96
2021-01-08 12:00:00 11.9 37 Nordeste 49 Este 13 -- -- 96
2021-01-08 11:00:00 11.9 37 Nordeste 46 Este 9.4 -- -- 96
2021-01-08 10:00:00 12 33 Nordeste 48 Nordeste 5.8 -- -- 95
2021-01-08 09:00:00 12.1 27 Nordeste 44 Nordeste 3.6 -- -- 94
2021-01-08 08:00:00 12.2 36 Nordeste 49 Este 1 -- -- 92
2021-01-08 07:00:00 12.3 28 Este 39 Este 3.6 -- -- 93
2021-01-08 06:00:00 11.6 11 Nordeste 31 Nordeste 4.6 -- -- 94
2021-01-08 05:00:00 12.1 22 Este 29 Este 1.4 -- -- 91
2021-01-08 04:00:00 11.9 13 Nordeste 24 Nordeste 0.6 -- -- 94
2021-01-08 03:00:00 11.5 10 Nordeste 24 Nordeste 1.6 -- -- 93
2021-01-08 02:00:00 11.7 16 Nordeste 39 Este 1.6 -- -- 91
2021-01-08 01:00:00 12.3 27 Este 37 Nordeste 0.2 -- -- 89
2021-01-08 00:00:00 12.2 24 Este 30 Este 2.8 -- -- 94
2021-01-07 23:00:00 12 21 Nordeste 27 Este 3.8 -- -- 94
2021-01-07 22:00:00 12 20 Nordeste 27 Nordeste 3.2 -- -- 93
2021-01-07 21:00:00 11.9 13 Nordeste 28 Nordeste 1.6 -- -- 91
2021-01-07 20:00:00 12 21 Este 27 Este 1.2 -- -- 91
2021-01-07 19:00:00 12 22 Este 31 Este 1.4 -- -- 90
2021-01-07 18:00:00 12.5 24 Este 31 Este 0 -- -- 87
2021-01-07 17:00:00 12.3 24 Este 31 Este 0 -- -- 88
2021-01-07 16:00:00 11.7 20 Este 25 Este 0.4 -- -- 91
2021-01-07 15:00:00 11.5 17 Este 30 Nordeste 0.2 -- -- 91
2021-01-07 14:00:00 11.7 24 Nordeste 31 Nordeste 0 -- -- 90
2021-01-07 13:00:00 11.2 21 Nordeste 30 Nordeste 0.4 -- -- 94
2021-01-07 12:00:00 11.1 23 Nordeste 29 Nordeste 1 -- -- 94
2021-01-07 11:00:00 11.1 17 Nordeste 26 Nordeste 0.8 -- -- 93
2021-01-07 10:00:00 10.9 18 Nordeste 22 Nordeste 0.2 -- -- 91
2021-01-07 09:00:00 10.4 9 Norte 20 Nordeste 0.4 -- -- 91
2021-01-07 08:00:00 11 17 Nordeste 30 Nordeste 0.4 -- -- 90
2021-01-07 07:00:00 10.9 17 Nordeste 30 Nordeste 0.2 -- -- 88
2021-01-07 06:00:00 10.9 17 Nordeste 29 Nordeste 0.2 -- -- 86
2021-01-07 05:00:00 11.3 20 Nordeste 30 Nordeste 0 -- -- 83
2021-01-07 04:00:00 11.6 23 Nordeste 36 Nordeste 0 -- -- 79
2021-01-07 03:00:00 11.5 19 Nordeste 38 Nordeste 0.2 -- -- 77
2021-01-07 02:00:00 11 18 Nordeste 38 Nordeste 0.4 -- -- 78
2021-01-07 01:00:00 11 35 Nordeste 51 Nordeste 1 -- -- 81
2021-01-07 00:00:00 11 30 Nordeste 50 Nordeste 0.6 -- -- 87
2021-01-06 23:00:00 11.1 39 Nordeste 50 Nordeste 1.8 -- -- 89
2021-01-06 22:00:00 10.9 36 Nordeste 52 Nordeste 3.4 -- -- 92
2021-01-06 21:00:00 11.3 37 Nordeste 50 Este 4.6 -- -- 92
2021-01-06 20:00:00 10.9 28 Nordeste 41 Nordeste 6.6 -- -- 92
2021-01-06 19:00:00 11.1 27 Nordeste 39 Nordeste 2.8 -- -- 89
2021-01-06 18:00:00 10.7 19 Nordeste 33 Norte 0.8 -- -- 85
2021-01-06 17:00:00 10.6 22 Nordeste 36 Nordeste 0.8 -- -- 88
2021-01-06 16:00:00 11.1 26 Nordeste 39 Nordeste 0.2 -- -- 84
2021-01-06 15:00:00 11.7 28 Nordeste 37 Nordeste 0 -- -- 79
2021-01-06 14:00:00 11.6 28 Este 39 Este 0 -- -- 82
2021-01-06 13:00:00 12 29 Este 38 Nordeste 0 -- -- 80
2021-01-06 12:00:00 12 24 Nordeste 37 Nordeste 0 -- -- 78
2021-01-06 11:00:00 11.9 24 Nordeste 33 Nordeste 0 -- -- 80
2021-01-06 10:00:00 11.6 18 Nordeste 31 Nordeste 0 -- -- 79
2021-01-06 09:00:00 10.6 8 Norte 15 Norte 0 -- -- 81
2021-01-06 08:00:00 10.8 9 Nordeste 28 Nordeste 0 -- -- 80
2021-01-06 07:00:00 10.4 11 Norte 15 Norte 0 -- -- 84
2021-01-06 06:00:00 10.3 4 Norte 13 Nordeste 0.2 -- -- 85
2021-01-06 05:00:00 9.6 6 Noroeste 11 Norte 0 -- -- 91
2021-01-06 04:00:00 9.8 7 Norte 12 Nordeste 0.2 -- -- 89
2021-01-06 03:00:00 10.1 7 Nordeste 21 Este 0.6 -- -- 88
2021-01-06 02:00:00 10.6 13 Nordeste 22 Este 0.2 -- -- 86
2021-01-06 01:00:00 10.3 4 Norte 17 Nordeste 0.4 -- -- 89
2021-01-06 00:00:00 10.3 7 Norte 12 Norte 1.8 -- -- 90
2021-01-05 23:00:00 10.7 2 Noroeste 15 Sudoeste 0.4 -- -- 88
2021-01-05 22:00:00 11.1 15 Sur 23 Sur 0 -- -- 87
2021-01-05 21:00:00 11.7 9 Norte 24 Nordeste 0.2 -- -- 75
2021-01-05 20:00:00 12.3 14 Nordeste 21 Nordeste 0 -- -- 71
2021-01-05 19:00:00 12.5 14 Nordeste 22 Nordeste 0 -- -- 70
2021-01-05 18:00:00 12.7 15 Este 19 Este 0 -- -- 72
2021-01-05 17:00:00 12.7 10 Este 14 Este 0 -- -- 70
2021-01-05 16:00:00 13.1 6 Sudeste 9 Sudeste 0 -- -- 67
2021-01-05 15:00:00 13.1 6 Sudeste 8 Sudeste 0 -- -- 64
2021-01-05 14:00:00 14 5 Sudeste 6 Sudeste 0 -- -- 60
2021-01-05 13:00:00 13 5 Sudeste 8 Sudeste 0 -- -- 63
2021-01-05 12:00:00 13 4 Norte 9 Noroeste 0 -- -- 60
2021-01-05 11:00:00 11.8 5 Norte 15 Norte 0 -- -- 62
2021-01-05 10:00:00 9 10 Norte 15 Norte 0 -- -- 68
2021-01-05 09:00:00 8.8 10 Norte 16 Norte 0 -- -- 67
2021-01-05 08:00:00 8.9 7 Norte 15 Norte 0 -- -- 67
2021-01-05 07:00:00 9 11 Norte 16 Norte 0 -- -- 66
2021-01-05 06:00:00 8.7 12 Norte 16 Noroeste 0 -- -- 66
2021-01-05 05:00:00 8.5 10 Noroeste 18 Norte 0 -- -- 65
2021-01-05 04:00:00 8.1 12 Norte 18 Norte 0 -- -- 65
2021-01-05 03:00:00 7.8 13 Norte 19 Norte 0 -- -- 66
2021-01-05 02:00:00 8.1 8 Norte 14 Noroeste 0 -- -- 64
2021-01-05 01:00:00 8.9 5 Noroeste 22 Norte 0 -- -- 59
2021-01-05 00:00:00 7.9 11 Norte 19 Noroeste 0 -- -- 63
2021-01-04 23:00:00 8.2 9 Norte 18 Noroeste 0 -- -- 61
2021-01-04 22:00:00 9 4 Nordeste 9 Nordeste 0 -- -- 60
2021-01-04 21:00:00 9.5 4 Noroeste 16 Noroeste 0 -- -- 56
2021-01-04 20:00:00 11 8 Oeste 19 Noroeste 0 -- -- 50
2021-01-04 19:00:00 11.6 13 Noroeste 21 Norte 0 -- -- 48
2021-01-04 18:00:00 13.3 12 Noroeste 20 Noroeste 0 -- -- 43
2021-01-04 17:00:00 15.7 9 Noroeste 25 Sudoeste 0 -- -- 36
2021-01-04 16:00:00 15.9 16 Oeste 30 Sudoeste 0 -- -- 47
2021-01-04 15:00:00 15.8 14 Oeste 34 Sudoeste 0 -- -- 39
2021-01-04 14:00:00 15.7 14 Oeste 28 Oeste 0 -- -- 42
2021-01-04 13:00:00 13.6 16 Sudoeste 23 Sudoeste 0 -- -- 50
2021-01-04 12:00:00 13 17 Sudoeste 23 Sudoeste 0 -- -- 52
2021-01-04 11:00:00 13.5 4 Nordeste 10 Nordeste 0 -- -- 49
2021-01-04 10:00:00 10.5 4 Norte 15 Noroeste 0 -- -- 49
2021-01-04 09:00:00 6.7 10 Noroeste 17 Norte 0 -- -- 60
2021-01-04 08:00:00 5.7 11 Noroeste 18 Norte 0 -- -- 61
2021-01-04 07:00:00 6.2 8 Norte 17 Norte 0 -- -- 61
2021-01-04 06:00:00 7.2 5 Norte 14 Noroeste 0 -- -- 54
2021-01-04 05:00:00 7.2 7 Norte 17 Norte 0 -- -- 51
2021-01-04 04:00:00 6.4 11 Noroeste 18 Norte 0 -- -- 53
2021-01-04 03:00:00 6 9 Norte 14 Norte 0 -- -- 57
2021-01-04 02:00:00 6.9 6 Norte 15 Norte 0 -- -- 53
2021-01-04 01:00:00 6.6 9 Noroeste 14 Norte 0 -- -- 52
2021-01-04 00:00:00 7.1 10 Noroeste 14 Noroeste 0 -- -- 49
2021-01-03 23:00:00 7.7 6 Norte 13 Noroeste 0 -- -- 48
2021-01-03 22:00:00 8.5 5 Norte 13 Sur 0 -- -- 46
2021-01-03 21:00:00 9.7 5 Sudeste 17 Oeste 0 -- -- 49
2021-01-03 20:00:00 10.5 11 Noroeste 19 Norte 0 -- -- 37
2021-01-03 19:00:00 11.1 5 Oeste 10 Oeste 0 -- -- 38
2021-01-03 18:00:00 14 3 Norte 9 Este 0 -- -- 39
2021-01-03 17:00:00 14.3 6 Este 13 Este 0 -- -- 41
2021-01-03 16:00:00 14 9 Este 13 Este 0 -- -- 43
2021-01-03 15:00:00 13.7 6 Sudeste 12 Sudoeste 0 -- -- 38
2021-01-03 14:00:00 12.6 8 Sur 11 Sur 0 -- -- 35
2021-01-03 13:00:00 13.1 4 Sur 9 Sur 0 -- -- 36
2021-01-03 12:00:00 12.7 4 Sudeste 6 Sudeste 0 -- -- 37
2021-01-03 11:00:00 12.7 3 Sudoeste 8 Norte 0 -- -- 38
2021-01-03 10:00:00 10.2 5 Noroeste 17 Norte 0 -- -- 40
2021-01-03 09:00:00 6.4 11 Noroeste 19 Norte 0 -- -- 51
2021-01-03 08:00:00 5.5 14 Norte 22 Norte 0 -- -- 55
2021-01-03 07:00:00 6 10 Norte 18 Norte 0 -- -- 52
2021-01-03 06:00:00 6 13 Norte 18 Norte 0 -- -- 54
2021-01-03 05:00:00 5.9 5 Noroeste 9 Noroeste 0 -- -- 55
2021-01-03 04:00:00 7.8 3 Oeste 16 Noroeste 0 -- -- 47
2021-01-03 03:00:00 8.4 6 Oeste 15 Nordeste 0 -- -- 47
2021-01-03 02:00:00 9.5 12 Norte 19 Norte 0 -- -- 47
2021-01-03 01:00:00 8.1 4 Noroeste 12 Oeste 0 -- -- 53
2021-01-03 00:00:00 8.7 6 Oeste 15 Oeste 0 -- -- 58
2021-01-02 23:00:00 9.8 7 Oeste 21 Oeste 0 -- -- 52
2021-01-02 22:00:00 10.4 6 Sudoeste 17 Oeste 0 -- -- 55
2021-01-02 21:00:00 10.3 5 Noroeste 14 Noroeste 0 -- -- 45
2021-01-02 20:00:00 10.7 4 Noroeste 21 Sudoeste 0 -- -- 41
2021-01-02 19:00:00 11.2 8 Oeste 17 Noroeste 0 -- -- 41
2021-01-02 18:00:00 13.6 8 Oeste 21 Noroeste 0 -- -- 33
2021-01-02 17:00:00 15 12 Noroeste 23 Oeste 0 -- -- 29
2021-01-02 16:00:00 16.2 13 Oeste 34 Oeste 0 -- -- 27
2021-01-02 15:00:00 15.5 7 Norte 25 Norte 0 -- -- 29
2021-01-02 14:00:00 14.3 8 Este 13 Este 0 -- -- 48